Location: Albany
(42.6526°N, 73.7562°W)
Time: 00:46:16
(UTC+00:00)

USA 229 - Pass Details

Date: 19 November 2019
Orbit: 998 x 1215 km, 63.4° (Epoch: 02 December)

Event Time Altitude Azimuth Distance (km) Brightness Sun altitude
Rises 22:15:13 0° 233° (SW) 3,723 8.2 -8.7°
Reaches altitude 10° 22:17:51 10° 238° (WSW) 2,791 7.4 -9.1°
Maximum altitude 22:24:13 51° 314° (NW) 1,294 4.4 -10.2°
Drops below altitude 10° 22:30:54 10° 29° (NNE) 2,927 5.6 -11.4°
Enters shadow 22:32:27 - 33° (NNE) 3,467 5.9 -11.7°
